Amargosa Valley, Nevada Weather observations

Data are for observation ending at time listed.
 Day   Time    Ave.   Ave.  Ave.  Vector   Max.   Stn.    Total    Solar   Ave.  
  of    of     Air    Rel.  Wind   Wind    Wind   Baro.  Precip.   Rad.    Soil  
Year   Day     Temp.  Hum.  Speed  Dir.    Gust   Pres.                    Temp. 
2020   (PST)    F      %     mph   deg.    mph     mb.     in.     W/m2     F   
------------------------------------------------------------------------------
 152   10:10   79.3    18    5.6   175     13.0   927.2    0.00     939    83.0
 152   10:20   79.7    18    7.4   163     11.8   927.0    0.00     954    83.0
 152   10:30   80.4    18    7.3   172     13.2   927.1    0.00     967    83.1
 152   10:40   80.9    18    6.9   184     16.2   927.0    0.00     979    83.1
 152   10:50   81.7    17    7.3   180     15.3   927.0    0.00     990    83.1
 152   11:00   82.0    16    8.0   177     14.9   927.0    0.00    1016    83.1
 152   11:10   82.0    17    7.1   177     16.5   926.9    0.00     826    83.2
 152   11:20   83.3    16    9.1   186     13.4   926.9    0.00     862    83.2
 152   11:30   82.8    16    6.5   172     12.2   926.8    0.00     824    83.2
 152   11:40   83.3    15    8.3   181     23.2   926.8    0.00     834    83.3
 152   11:50   85.1    13   10.1   180     18.6   926.6    0.00    1035    83.3
 152   12:00   86.0    12   10.2   189     19.1   926.5    0.00     954    83.4
 152   12:10   86.4    12   12.3   184     19.6   926.5    0.00    1056    83.4
 152   12:20   86.7    11   12.6   185     18.0   926.5    0.00     871    83.5
 152   12:30   86.0    11   12.7   184     20.9   926.4    0.00     849    83.6
 152   12:40   86.7    11   12.8   186     19.5   926.3    0.00     729    83.6
 152   12:50   86.7    11   14.0   182     20.2   926.2    0.00     805    83.7
 152   13:00   87.0    11   12.2   189     19.7   926.1    0.00     794    83.8
 152   13:10   87.4    11   13.4   186     19.2   926.0    0.00    1007    83.9
 152   13:20   87.6    12   13.8   186     20.5   925.9    0.00     697    84.0
 152   13:30   87.9    12   13.7   180     22.2   925.8    0.00     788    84.1
 152   13:40   87.6    12   13.0   181     21.6   925.7    0.00     816    84.2
 152   13:50   87.1    12   10.2   171     21.4   925.7    0.00     648    84.4
 152   14:00   88.4    12   11.7   161     19.6   925.7    0.00     764    84.5
 152   14:10   88.4    12   12.4   159     19.9   925.6    0.00     519    84.7
 152   14:20   87.6    12   12.2   180     18.6   925.5    0.00     417    84.8
 152   14:30   88.0    12   12.8   174     19.9   925.3    0.00     385    85.0
 152   14:40   87.6    12   13.7   172     21.2   925.3    0.00     536    85.1
 152   14:50   88.6    11   14.1   176     21.3   925.1    0.00     684    85.3
 152   15:00   88.7    11   15.7   175     22.4   925.0    0.00     464    85.5
 152   15:10   88.5    10   15.1   178     23.0   924.9    0.00     412    85.6
 152   15:20   88.0    11   14.4   180     21.5   924.9    0.00     264    85.8
 152   15:30   87.4    11   13.9   180     20.2   924.8    0.00     280    85.9
 152   15:40   87.5    11   12.6   166     18.6   924.7    0.00     307    86.1
 152   15:50   88.4    11   12.6   160     19.1   924.7    0.00     293    86.2
 152   16:00   87.9    11   12.9   169     19.4   924.6    0.00     245    86.3
 152   16:10   88.1    11   13.3   165     19.1   924.6    0.00     143    86.5
 152   16:20   88.0    11   12.2   156     17.3   924.6    0.00     140    86.6
 152   16:30   88.4    11   11.8   157     18.0   924.5    0.00     138    86.7
 152   16:40   88.5    11   11.9   153     18.0   924.4    0.00     116    86.8
 152   16:50   88.4    11   12.4   156     19.1   924.3    0.00     138    86.9
 152   17:00   88.0    11   13.7   154     18.7   924.3    0.00      99    87.0
 152   17:10   87.7    11   13.7   163     20.2   924.1    0.00      89    87.0
 152   17:20   87.1    11   13.8   163     20.2   924.0    0.00      88    87.1
 152   17:30   87.1    11   12.9   162     19.9   924.0    0.00      80    87.2
 152   17:40   87.0    11   12.1   160     17.2   924.0    0.00      63    87.3
 152   17:50   86.6    12   10.8   155     17.5   924.0    0.00      58    87.3
 152   18:00   86.3    12   11.0   154     16.1   924.1    0.00      47    87.4
 152   18:10   86.1    12   10.7   167     15.3   924.1    0.00      47    87.4
 152   18:20   85.7    12   10.1   163     15.4   924.1    0.00      39    87.4
 152   18:30   85.3    12    9.6   163     14.2   924.2    0.00      31    87.5
 152   18:40   84.8    12    8.7   164     12.5   924.2    0.00      24    87.5
 152   18:50   84.3    12    7.8   154     12.3   924.2    0.00      14    87.5
 152   19:00   83.8    12    7.0   153     10.2   924.4    0.00       6    87.6
 152   19:10   83.3    12    7.5   158     11.4   924.3    0.00       3    87.6
 152   19:20   82.9    12    6.7   158     10.0   924.2    0.00       0    87.6
 152   19:30   82.3    13    7.3   162     10.4   924.3    0.00       0    87.6
 152   19:40   81.7    13    7.2   172      9.8   924.4    0.00       0    87.6
 152   19:50   81.0    13    6.8   173      9.4   924.4    0.00       0    87.6
 152   20:00   80.2    13    6.5   174      8.7   924.4    0.00       0    87.6
 152   20:10   79.1    13    5.8   168      8.6   924.5    0.00       0    87.6
 152   20:20   79.2    13    5.8   164      7.5   924.7    0.00       0    87.6
 152   20:30   78.9    14    6.5   158      9.6   924.7    0.00       0    87.6
 152   20:40   79.0    13    7.6   158     11.1   924.8    0.00       0    87.5
 152   20:50   79.5    13    8.5   160     12.1   924.9    0.00       0    87.5
 152   21:00   79.0    13    8.5   164     11.3   925.0    0.00       0    87.5
 152   21:10   78.9    13    8.9   167     11.7   925.0    0.00       0    87.5
 152   21:20   78.3    14    8.5   168     12.2   925.2    0.00       0    87.4
 152   21:30   77.7    14    8.3   164     11.1   925.1    0.00       0    87.4
 152   21:40   77.3    14    8.5   163     11.8   924.9    0.00       0    87.3
 152   21:50   76.7    14    8.2   167     10.4   925.0    0.00       0    87.3
 152   22:00   76.1    15    8.0   168     11.2   924.9    0.00       0    87.3
 152   22:10   76.0    15    8.7   169     11.7   925.0    0.00       0    87.2
 152   22:20   76.1    15    8.3   167     10.9   925.0    0.00       0    87.2
 152   22:30   76.0    15    7.5   160      9.6   925.1    0.00       0    87.1
 152   22:40   75.8    15    6.6   153      8.6   925.3    0.00       0    87.1
 152   22:50   75.2    16    5.4   143      7.5   925.1    0.00       0    87.0
 152   23:00   74.4    16    6.2   137      8.6   925.0    0.00       0    87.0
 152   23:10   74.5    16    7.0   149      9.3   925.2    0.00       0    86.9
 152   23:20   74.6    16    6.5   148      9.6   925.2    0.00       0    86.9
 152   23:30   74.7    16    7.0   152      9.1   925.2    0.00       0    86.8
 152   23:40   74.6    16    5.8   150      7.8   925.2    0.00       0    86.8
 152   23:50   73.4    17    5.6   147      7.4   925.3    0.00       0    86.7
 153    0:00   72.5    18    5.4   135      7.4   925.2    0.00       0    86.6
 153    0:10   72.3    18    6.0   128      7.9   925.3    0.00       0    86.6
 153    0:20   73.0    17    6.4   123      8.8   925.4    0.00       0    86.5
 153    0:30   71.8    18    5.3   114      8.3   925.3    0.00       0    86.5
 153    0:40   73.1    17    6.2   115      9.0   925.3    0.00       0    86.4
 153    0:50   72.6    17    5.9   113      8.8   925.3    0.00       0    86.3
 153    1:00   72.4    17    6.6   118      8.9   925.4    0.00       0    86.3
 153    1:10   71.9    18    5.8   113      8.3   925.4    0.00       0    86.2
 153    1:20   71.6    18    5.9   117      8.5   925.4    0.00       0    86.1
 153    1:30   70.9    19    4.5   126      6.5   925.3    0.00       0    86.1
 153    1:40   71.6    18    6.0   137      8.5   925.3    0.00       0    86.0
 153    1:50   72.5    18    7.4   137     10.9   925.4    0.00       0    85.9
 153    2:00   72.7    18    7.6   137     10.4   925.5    0.00       0    85.8
 153    2:10   72.2    18    7.1   136      9.9   925.5    0.00       0    85.8
 153    2:20   72.0    19    8.1   125     11.4   925.6    0.00       0    85.7
 153    2:30   72.0    19    8.1   122     11.1   925.7    0.00       0    85.6
 153    2:40   71.4    19    7.6   118     10.1   925.6    0.00       0    85.6
 153    2:50   71.1    20    7.0   123      9.9   925.8    0.00       0    85.5
 153    3:00   71.5    20    7.1   127     10.5   925.8    0.00       0    85.4
 153    3:10   71.6    20    6.5   124      9.7   925.9    0.00       0    85.3
 153    3:20   71.4    20    5.0   137      8.2   925.9    0.00       0    85.3
 153    3:30   69.9    21    3.3   131      5.3   926.1    0.00       0    85.2
 153    3:40   68.8    22    3.0   150      4.7   925.9    0.00       0    85.2
 153    3:50   68.4    22    3.4   148      5.6   925.9    0.00       0    85.0
 153    4:00   68.7    22    2.9   158      5.4   925.9    0.00       0    85.0
 153    4:10   67.9    22    3.0   136      4.3   926.0    0.00       0    84.9
 153    4:20   67.0    23    1.6   120      3.8   925.9    0.00       0    84.8
 153    4:30   66.6    23    0.4   102      2.0   926.2    0.00       2    84.8
 153    4:40   67.1    23    0.7    65      2.4   926.1    0.00       6    84.7
 153    4:50   65.3    25    0.0    29      1.2   926.2    0.00      11    84.6
 153    5:00   66.0    24    1.4    68      3.7   926.3    0.00      16    84.6
 153    5:10   67.5    24    3.0    82      5.2   926.4    0.00      24    84.5
 153    5:20   67.3    25    2.0    72      4.4   926.5    0.00      32    84.4
 153    5:30   68.0    25    1.5    81      3.7   926.7    0.00      38    84.3
 153    5:40   68.7    24    4.0   154      8.0   926.6    0.00      50    84.2
 153    5:50   68.9    24    2.4   112      4.1   926.9    0.00      74    84.1
 153    6:00   68.8    24    0.8    72      2.3   927.0    0.00      96    84.1
 153    6:10   69.2    24    0.2    50      1.6   927.2    0.00     112    84.0
 153    6:20   69.7    23    0.9    72      2.9   927.3    0.00     150    83.9
 153    6:30   70.6    22    2.3    99      3.6   927.4    0.00     246    83.8
 153    6:40   71.7    21    3.2    85      4.8   927.6    0.00     331    83.8
 153    6:50   72.6    20    4.2   103      6.7   927.7    0.00     358    83.6
 153    7:00   74.3    20    4.4   128      6.9   927.9    0.00     389    83.6
 153    7:10   75.4    19    4.0   123      6.9   928.1    0.00     406    83.5
 153    7:20   76.6    19    5.8   167     10.6   928.2    0.00     421    83.4
 153    7:30   77.1    19    8.1   178     11.2   928.4    0.00     393    83.4
 153    7:40   77.6    19    8.4   170     12.1   928.4    0.00     511    83.3
 153    7:50   77.6    19    7.5   168     12.1   928.6    0.00     546    83.2
 153    8:00   79.1    18    8.7   180     12.6   928.6    0.00     605    83.2
 153    8:10   80.3    17    9.3   187     15.1   928.7    0.00     623    83.1
 153    8:20   81.0    16   12.4   187     16.8   928.9    0.00     683    83.1
 153    8:30   81.7    15   12.9   183     18.3   928.9    0.00     687    83.1
 153    8:40   82.4    15   13.2   180     18.3   928.9    0.00     739    83.0
 153    8:50   83.2    14   13.6   190     19.2   928.9    0.00     792    83.0
 153    9:00   83.4    13   14.4   185     21.0   928.8    0.00     747    83.0
 153    9:10   84.0    13   14.5   180     20.5   928.9    0.00     674    82.9
 153    9:20   85.0    13   13.6   169     19.6   929.0    0.00     827    82.9
 153    9:30   84.9    13   12.7   166     18.4   929.1    0.00     835    82.9
 153    9:40   85.4    13   12.5   170     22.1   929.1    0.00     856    82.9
 153    9:50   86.1    12   12.9   172     21.5   929.1    0.00     948    82.9
 153   10:00   87.2    12   10.9   138     19.5   929.2    0.00     946    82.9

Return to Amargosa Valley, Nevada graphs page.


Western Regional Climate Center,wrcc@dri.edu